Location: Ku?niki
(51.4449°N, 17.8974°E)
Time: 01:50:18
(UTC+00:00)

ZACube-1 - Pass Details

Date: 29 June 2022
Orbit: 582 x 661 km, 97.6° (Epoch: 07 August)

Event Time Altitude Azimuth Distance (km) Brightness Sun altitude
Rises 01:34:16 0° 27° (NNE) 2,935 ? -7.3°
Reaches altitude 10° 01:37:11 10° 48° (NE) 2,037 ? -7.0°
Maximum altitude 01:40:05 17° 89° (E) 1,631 ? -6.7°
Drops below altitude 10° 01:43:01 10° 130° (SE) 2,053 ? -6.4°
Sets 01:45:57 0° 150° (SSE) 2,969 ? -6.1°
